Location: Quedlinburg
(51.7921°N, 11.1414°E)
Time: 21:52:39
(UTC+02:00)

SEEDS - Pass Details

Date: 15 March 2026
Orbit: 470 x 477 km, 97.8° (Epoch: 21 April)

Event Time Altitude Azimuth Distance (km) Brightness Sun altitude
Rises 05:13:44 0° 21° (NNE) 2,563 ? -12.5°
Reaches altitude 10° 05:15:56 10° 30° (NNE) 1,676 ? -12.2°
Maximum altitude 05:19:16 35° 98° (E) 802 ? -11.7°
Drops below altitude 10° 05:22:33 10° 165° (SSE) 1,655 ? -11.2°
Sets 05:24:43 0° 175° (S) 2,526 ? -10.9°
